Gwinner, ND

4:36 PM CDT on May 25, 2017 (GMT -0500)
Gwinner-melroe

Weather History for KGWR - April, 2013

Change the Weather History Date:

Monday, April 29, 2013

  Actual Average (KP67) Record (KP67)
Temperature  
Mean Temperature 51 °F -  
Max Temperature 69 °F 61 °F 72 °F (1998)
Min Temperature 33 °F 37 °F 37 °F (1997)
Degree Days  
Heating Degree Days 14    
Growing Degree Days 1 (Base 50)    
Moisture  
Dew Point 36 °F    
Average Humidity 60    
Maximum Humidity 93    
Minimum Humidity 27    
Precipitation  
Precipitation 0.00 in - - ()
Sea Level Pressure  
Sea Level Pressure 29.69 in    
Wind  
Wind Speed 10 mph (SE)    
Max Wind Speed 22 mph    
Max Gust Speed 30 mph    
Visibility 10 miles    
Events      
Averages and records for this station are not official NWS values.
T = Trace of Precipitation, MM = Missing Value Source: NWS Daily Summary

Daily Weather History Graph

Daily Weather History Graph

Search for Another Location

Airport or City:

Trip Planner

Search our weather history database for the weather conditions in past years. The results will help you decide how hot, cold, wet, or windy it might be!

Date:

Astronomy

Apr. 29, 2013 Rise Set
Actual Time 6:19 AM CDT 8:36 PM CDT
Civil Twilight 5:46 AM CDT 9:10 PM CDT
Nautical Twilight 5:05 AM CDT 9:51 PM CDT
Astronomical Twilight 4:19 AM CDT 10:37 PM CDT
Moon 12:13 AM CDT (4/29) 9:36 AM CDT (4/29)
Length of Visible Light 15h 23m
Length of Day
14h 17m
Waning Gibbous, 80% of the Moon is Illuminated
Apr 29
Waning Gibbous
May 2
Last Quarter
May 9
New
May 17
First Quarter
May 24
Full

Hourly Weather History & Observations

Time (CDT) Temp. Windchill Dew Point Humidity Pressure Visibility Wind Dir Wind Speed Gust Speed Precip Events Conditions
12:15 AM 42.8 °F 36.6 °F 33.8 °F 70% 29.89 in 10.0 mi NW 11.5 mph - 0.00 in   Clear
12:35 AM 42.8 °F 36.6 °F 33.8 °F 70% 29.90 in 10.0 mi NW 11.5 mph - 0.00 in   Clear
12:55 AM 42.8 °F 36.6 °F 33.8 °F 70% 29.90 in 10.0 mi NW 11.5 mph - 0.00 in   Clear
1:15 AM 41.0 °F 34.3 °F 32.0 °F 70% 29.90 in 10.0 mi NNW 11.5 mph - 0.00 in   Clear
1:35 AM 41.0 °F 34.7 °F 32.0 °F 70% 29.90 in 10.0 mi NNW 10.4 mph - 0.00 in   Clear
1:55 AM 41.0 °F 34.7 °F 32.0 °F 70% 29.90 in 10.0 mi NNW 10.4 mph - 0.00 in   Clear
2:15 AM 39.2 °F 33.6 °F 32.0 °F 75% 29.90 in 10.0 mi NNW 8.1 mph - 0.00 in   Clear
2:35 AM 39.2 °F 35.0 °F 32.0 °F 75% 29.90 in 10.0 mi North 5.8 mph - 0.00 in   Clear
2:55 AM 37.4 °F 34.9 °F 32.0 °F 81% 29.90 in 10.0 mi North 3.5 mph - 0.00 in   Clear
3:15 AM 39.2 °F 35.0 °F 32.0 °F 75% 29.89 in 10.0 mi North 5.8 mph - 0.00 in   Clear
3:35 AM 37.4 °F 31.4 °F 32.0 °F 81% 29.89 in 10.0 mi North 8.1 mph - 0.00 in   Clear
3:55 AM 37.4 °F 32.8 °F 32.0 °F 81% 29.88 in 10.0 mi North 5.8 mph - 0.00 in   Clear
4:15 AM 37.4 °F 33.8 °F 32.0 °F 81% 29.88 in 10.0 mi North 4.6 mph - 0.00 in   Clear
4:35 AM 37.4 °F 32.8 °F 32.0 °F 81% 29.88 in 10.0 mi North 5.8 mph - 0.00 in   Clear
4:55 AM 35.6 °F 31.7 °F 32.0 °F 87% 29.88 in 10.0 mi North 4.6 mph - 0.00 in   Clear
5:15 AM 33.8 °F - 32.0 °F 93% 29.88 in 10.0 mi Calm Calm - 0.00 in   Clear
5:35 AM 35.6 °F - 32.0 °F 87% 29.87 in 10.0 mi Calm Calm - 0.00 in   Clear
5:55 AM 33.8 °F - 32.0 °F 93% 29.87 in 10.0 mi Calm Calm - 0.00 in   Clear
6:15 AM 35.6 °F - 32.0 °F 87% 29.88 in 10.0 mi Calm Calm - 0.00 in   Clear
6:35 AM 35.6 °F 31.7 °F 32.0 °F 87% 29.86 in 10.0 mi East 4.6 mph - 0.00 in   Clear
6:55 AM 33.8 °F - 32.0 °F 93% 29.87 in 10.0 mi Calm Calm - 0.00 in   Clear
7:15 AM 35.6 °F - 33.8 °F 93% 29.87 in 10.0 mi Calm Calm - 0.00 in   Clear
7:35 AM 37.4 °F - 35.6 °F 93% 29.86 in 10.0 mi Calm Calm - 0.00 in   Clear
7:55 AM 39.2 °F 37.0 °F 33.8 °F 81% 29.85 in 10.0 mi SE 3.5 mph - 0.00 in   Clear
8:15 AM 39.2 °F 34.2 °F 33.8 °F 81% 29.84 in 10.0 mi SE 6.9 mph - 0.00 in   Clear
8:35 AM 42.8 °F 38.0 °F 33.8 °F 70% 29.84 in 10.0 mi SSE 8.1 mph - 0.00 in   Clear
8:55 AM 44.6 °F 39.2 °F 33.8 °F 66% 29.82 in 10.0 mi ESE 10.4 mph - 0.00 in   Clear
9:15 AM 44.6 °F 38.8 °F 33.8 °F 66% 29.80 in 10.0 mi SE 11.5 mph - 0.00 in   Clear
9:35 AM 46.4 °F 41.5 °F 35.6 °F 66% 29.80 in 10.0 mi SE 10.4 mph - 0.00 in   Clear
9:55 AM 48.2 °F - 35.6 °F 62% 29.79 in 10.0 mi SE 11.5 mph - 0.00 in   Clear
10:15 AM 50.0 °F - 33.8 °F 54% 29.78 in 10.0 mi SSE 15.0 mph - 0.00 in   Clear
10:35 AM 51.8 °F - 35.6 °F 54% 29.78 in 10.0 mi SSE 11.5 mph - 0.00 in   Clear
10:55 AM 53.6 °F - 35.6 °F 51% 29.76 in 10.0 mi SSE 12.7 mph - 0.00 in   Clear
11:15 AM 55.4 °F - 35.6 °F 47% 29.75 in 10.0 mi SSE 10.4 mph - 0.00 in   Clear
11:35 AM 57.2 °F - 35.6 °F 44% 29.73 in 10.0 mi SE 11.5 mph - 0.00 in   Clear
11:55 AM 57.2 °F - 35.6 °F 44% 29.73 in 10.0 mi SSE 11.5 mph 16.1 mph 0.00 in   Clear
12:15 PM 59.0 °F - 35.6 °F 42% 29.73 in 10.0 mi SE 9.2 mph - 0.00 in   Clear
12:35 PM 62.6 °F - 35.6 °F 37% 29.71 in 10.0 mi SE 10.4 mph - 0.00 in   Clear
1:15 PM 62.6 °F - 37.4 °F 39% 29.68 in 10.0 mi ESE 11.5 mph - 0.00 in   Clear
1:35 PM 64.4 °F - 39.2 °F 40% 29.67 in 10.0 mi ESE 11.5 mph - 0.00 in   Clear
1:55 PM 66.2 °F - 35.6 °F 32% 29.65 in 10.0 mi SE 13.8 mph - 0.00 in   Clear
2:15 PM 68.0 °F - 33.8 °F 28% 29.64 in 10.0 mi South 18.4 mph - 0.00 in   Clear
2:35 PM 69.8 °F - 33.8 °F 27% 29.62 in 10.0 mi South 18.4 mph - 0.00 in   Clear
2:55 PM 69.8 °F - 33.8 °F 27% 29.61 in 10.0 mi South 17.3 mph - 0.00 in   Clear
3:15 PM 68.0 °F - 33.8 °F 28% 29.60 in 10.0 mi South 16.1 mph - 0.00 in   Clear
3:55 PM 69.8 °F - 35.6 °F 28% 29.58 in 10.0 mi South 18.4 mph 21.9 mph 0.00 in   Clear
4:15 PM 69.8 °F - 35.6 °F 28% 29.57 in 10.0 mi South 19.6 mph 24.2 mph 0.00 in   Clear
4:35 PM 69.8 °F - 35.6 °F 28% 29.56 in 10.0 mi South 20.7 mph 24.2 mph 0.00 in   Clear
4:55 PM 69.8 °F - 35.6 °F 28% 29.54 in 10.0 mi South 21.9 mph 26.5 mph 0.00 in   Clear
5:15 PM 69.8 °F - 33.8 °F 27% 29.53 in 10.0 mi SSE 20.7 mph 29.9 mph 0.00 in   Clear
5:35 PM 68.0 °F - 35.6 °F 30% 29.53 in 10.0 mi SSE 21.9 mph 27.6 mph 0.00 in   Clear
5:55 PM 66.2 °F - 37.4 °F 35% 29.52 in 10.0 mi South 15.0 mph - 0.00 in   Clear
6:15 PM 68.0 °F - 37.4 °F 33% 29.51 in 10.0 mi SSE 17.3 mph - 0.00 in   Partly Cloudy
6:35 PM 66.2 °F - 39.2 °F 37% 29.50 in 10.0 mi SSE 12.7 mph - 0.00 in   Clear
6:55 PM 64.4 °F - 39.2 °F 40% 29.50 in 10.0 mi SE 10.4 mph - 0.00 in   Mostly Cloudy
7:15 PM 64.4 °F - 41.0 °F 42% 29.49 in 10.0 mi SE 10.4 mph - 0.00 in   Mostly Cloudy
7:35 PM 62.6 °F - 42.8 °F 48% 29.48 in 10.0 mi SE 8.1 mph - 0.00 in   Scattered Clouds
7:55 PM 60.8 °F - 44.6 °F 55% 29.47 in 10.0 mi ESE 10.4 mph - 0.00 in   Partly Cloudy
8:15 PM 59.0 °F - 44.6 °F 59% 29.46 in 10.0 mi ESE 8.1 mph - 0.00 in   Clear
8:35 PM 57.2 °F - 44.6 °F 63% 29.46 in 10.0 mi ESE 9.2 mph - 0.00 in   Clear
8:55 PM 57.2 °F - 46.4 °F 67% 29.45 in 10.0 mi ESE 10.4 mph - 0.00 in   Clear
9:15 PM 57.2 °F - 46.4 °F 67% 29.45 in 10.0 mi ESE 9.2 mph - 0.00 in   Clear
9:35 PM 57.2 °F - 46.4 °F 67% 29.44 in 10.0 mi ESE 9.2 mph - 0.00 in   Partly Cloudy
9:55 PM 57.2 °F - 44.6 °F 63% 29.43 in 10.0 mi ESE 12.7 mph - 0.00 in   Clear
10:15 PM 55.4 °F - 44.6 °F 67% 29.42 in 10.0 mi SE 11.5 mph - 0.00 in   Partly Cloudy
10:35 PM 55.4 °F - 46.4 °F 72% 29.40 in 10.0 mi SE 11.5 mph - 0.00 in   Partly Cloudy
11:15 PM 55.4 °F - 46.4 °F 72% 29.38 in 10.0 mi ESE 10.4 mph - 0.00 in   Clear
11:35 PM 55.4 °F - 46.4 °F 72% 29.37 in 10.0 mi ESE 10.4 mph - 0.00 in   Clear
11:55 PM 55.4 °F - 46.4 °F 72% 29.35 in 10.0 mi ESE 10.4 mph - 0.00 in   Clear